Regional Weather Roundup
Issued by NWS

Home | Current Version | Previous Version | Text Only | Print | Product List | Glossary Off
Versions: 1 2 3 4 5 6 7 8 9 10 11 12 13 14 15 16 17 18 19 20 21 22 23 24 25 26 27 28 29 30 31 32 33 34 35 36 37 38 39 40 41 42 43 44 45 46 47 48 49 50

470
ASUS43 KTOP 081808
RWRKS

WEATHER ROUNDUP FOR KANSAS
NATIONAL WEATHER SERVICE GOODLAND KS
1200 PM CST THU DEC 08 2016

NOTE:  "FAIR" INDICATES FEW OR NO CLOUDS BELOW 12,000 FEET WITH NO
SIGNIFICANT WEATHER AND/OR OBSTRUCTIONS TO VISIBILITY.

KSZ001>006-013>018-027>032-041>047-081900-
NORTHWEST KANSAS

CITY           SKY/WX    TMP DP  RH WIND       PRES   REMARKS
GOODLAND       SUNNY     13   1  59 N6        30.57F
6HR MIN TEMP:  -6; 6HR MAX TEMP:  13;

HAYS           SUNNY     20   6  55 N16       30.68F WCI   6
HILL CITY      SUNNY     18   5  57 NW13      30.69F WCI   5
6HR MIN TEMP:   1; 6HR MAX TEMP:  18;

RUSSELL        SUNNY     20   6  55 NW16      30.67F WCI   6
6HR MIN TEMP:   7; 6HR MAX TEMP:  20;

$$

KSZ061>065-074>080-084>089-081900-
SOUTHWEST KANSAS

CITY           SKY/WX    TMP DP  RH WIND       PRES   REMARKS
DODGE CITY     SUNNY     17   3  54 N9        30.67F
6HR MIN TEMP:   3; 6HR MAX TEMP:  17;

ELKHART          N/A     20   0  42 CALM        N/A
GARDEN CITY    SUNNY     15   3  59 NW9       30.65F
6HR MIN TEMP:  -3; 6HR MAX TEMP:  15;

GREAT BEND     SUNNY     21   6  52 N15       30.68F WCI   8
LIBERAL        PTSUNNY   19   3  49 NW6       30.65F
PRATT          SUNNY     21   2  44 N15       30.67F WCI   7
6HR MIN TEMP:   8; 6HR MAX TEMP:  21;

$$

KSZ066>073-081>083-090>101-081900-
SOUTHEAST KANSAS

CITY           SKY/WX    TMP DP  RH WIND       PRES   REMARKS
CHANUTE        SUNNY     25  14  63 NW12      30.66F WCI  14
6HR MIN TEMP:  15; 6HR MAX TEMP:  25;

COFFEYVILLE    SUNNY     28  11  48 N14       30.69F WCI  17
6HR MIN TEMP:  17; 6HR MAX TEMP:  28;

HUTCHINSON     SUNNY     25   6  44 N15       30.68F WCI  13
6HR MIN TEMP:  13; 6HR MAX TEMP:  25;

MEDICINE LODGE   N/A     24   5  44 NW8       30.70F
NEWTON         SUNNY     22  10  60 NW15      30.67F WCI   9
PARSONS        SUNNY     26  12  55 NW8G18    30.68F
6HR MIN TEMP:  15; 6HR MAX TEMP:  26;

WICHITA INTL   MOSUNNY   26   6  42 N17G24    30.67F WCI  13
6HR MIN TEMP:  15; 6HR MAX TEMP:  26;

WICHITA JABRA  SUNNY     25   8  48 NW13      30.66F WCI  14
6HR MIN TEMP:  13; 6HR MAX TEMP:  25;

WICHITA MCCONL SUNNY     25   7  45 N14       30.66F WCI  14
WINFIELD       SUNNY     28   7  41 N15       30.69F WCI  16
6HR MIN TEMP:  14; 6HR MAX TEMP:  28;

$$

KSZ007>012-019>026-033>040-048>060-102>105-081900-
NORTHEAST KANSAS

CITY           SKY/WX    TMP DP  RH WIND       PRES   REMARKS
CONCORDIA      SUNNY     20   8  60 NW12      30.67F WCI   8
6HR MIN TEMP:   7; 6HR MAX TEMP:  20;

EMPORIA        SUNNY     22  11  62 NW15      30.65F WCI   9
6HR MIN TEMP:  13; 6HR MAX TEMP:  22;

LAWRENCE       SUNNY     23  13  65 W14       30.65F WCI  11
6HR MIN TEMP:  13; 6HR MAX TEMP:  23;

MANHATTAN      SUNNY     24   8  50 NW8       30.68F
6HR MIN TEMP:  12; 6HR MAX TEMP:  24;

MARYSVILLE     SUNNY     21   9  58 NW14      30.65F WCI   8
OLATHE IND     SUNNY     22  11  62 W9        30.62F
6HR MIN TEMP:  13; 6HR MAX TEMP:  22;

OLATHE EXE     SUNNY     21   9  59 NW10G21   30.61F WCI  10
6HR MIN TEMP:  13; 6HR MAX TEMP:  21;

SALINA         SUNNY     22   8  55 NW17      30.71F WCI   8
6HR MIN TEMP:  12; 6HR MAX TEMP:  22;

TOPEKA BILLARD SUNNY     24  11  57 W12       30.65F WCI  13
6HR MIN TEMP:  14; 6HR MAX TEMP:  24;

TOPEKA FORBES  SUNNY     24  10  55 NW16      30.64F WCI  11
6HR MIN TEMP:  13; 6HR MAX TEMP:  24;

$$




USA.gov is the U.S. government's official web portal to all federal, state and local government web resources and services.